Notices

What's New in latest Release from April 7th, 2021:

- Updated Glossary, including Speed of Maximum Gust, and Total Hourly Precipitation

- Updated national and regional climate services offices contacts and prices information

- Addition of station inventory lists for 1981-2010, 1971-2000, and 1961-1990 Normals.

If you haven't already, please take our survey and provide feedback about our website: https://eccc.sondage-survey.ca/f/LanguageSelection.aspx?s=442ca660-fcf1-47c0-95a9-59707d6fd709

Hourly Data Report for November 08, 2020

VICTORIA UNIVERSITY CS
BRITISH COLUMBIA
Current Station Operator: ECCC - MSC

48°27'25.200" N
123°18'16.600" W
60.10 m
1018598
71783
WYJ

Download Data

Hourly Data (November 2020)
Hourly Data Report for November 8, 2020
TIME
LST
Temp Definition
°C
Dew Point Definition
°C
Rel Hum Definition
%
Precip. Amount Definition
mm

Wind Dir Definition
10's deg

Wind Spd Definition
km/h
Visibility Definition
km
Stn Press Definition
kPa
Hmdx Definition


Wind Chill Definition


Weather Definition


00:00 5.9 -3.1 52 0.0 5 5   100.33     LegendNANA
01:00 5.5 -5.3 46 0.0 32 12   100.37     LegendNANA
02:00 5.3 -4.2 50 0.0 31 10   100.45     LegendNANA
03:00 5.5 -2.8 55 0.0 34 8   100.53     LegendNANA
04:00 5.7 -2.8 54 0.0 35 8   100.60     LegendNANA
05:00 5.0 -5.3 47 0.0 2 5   100.68     LegendNANA
06:00 5.2 -6.2 44 0.0 3 9   100.78     LegendNANA
07:00 5.0 -6.7 42 0.0 2 9   100.90     LegendNANA
08:00 5.3 -6.2 43 0.0 1 9   101.03     LegendNANA
09:00 5.9 -6.1 42 0.0 3 9   101.08     LegendNANA
10:00 7.4 -6.6 36 0.0 2 10   101.13     LegendNANA
11:00 7.6 -6.6 36 0.0 2 12   101.22     LegendNANA
12:00 7.8 -7.1 34 0.0 1 11   101.24     LegendNANA
13:00 7.6 -7.5 33 0.0 1 10   101.26     LegendNANA
14:00 8.1 -7.2 33 0.0 2 7   101.28     LegendNANA
15:00 7.6 -7.0 35 0.0 1 8   101.34     LegendNANA
16:00 6.7 -6.2 39 0.0 1 3   101.39     LegendNANA
17:00 4.9 -4.5 51 0.0 32 3   101.46     LegendNANA
18:00 1.7 -3.7 67 0.0 26 3   101.49     LegendNANA
19:00 1.5 -4.2 66 0.0 26 3   101.51     LegendNANA
20:00 0.7 -4.2 70 0.0 26 4   101.55     LegendNANA
21:00 0.7 -4.1 70 0.0 30 4   101.58     LegendNANA
22:00 -0.4 -3.9 77 0.0 30 4   101.58   -2 LegendNANA
23:00 2.5 -4.1 61 0.0 31 5   101.58     LegendNANA

Notes on Data Quality.

Legend

  • E = Estimated
  • M = Missing
  • NA = Not Available*
  • [empty] = Indicates an unobserved value
Date modified: